Location: Pinhey's Point
(45.4411°N, 75.9539°W)
Time: 17:54:46
(UTC-04:00)

Iridium 65 - Visible Passes

Search period start: 23 October 2014 00:00
Search period end: 02 November 2014 00:00
Orbit: 776 x 779 km, 86.4° (Epoch: 23 October)

Date Brightness Start Highest point End Pass type
(mag) Time Alt. Az. Time Alt. Az. Time Alt. Az.
23 Oct 7.8 04:33:19 10° N 04:34:07 15° N 04:34:07 15° N visible
24 Oct 8.2 03:59:52 10° N 03:59:59 11° N 03:59:59 11° N visible
24 Oct 8.8 18:44:47 10° WNW 18:45:38 10° WNW 18:46:29 10° WNW visible
